Regional Weather Roundup
Issued by NWS Newport/Morehead, NC

Current Version | Previous Version | Text Only | Print | Product List | Glossary On
Versions: 1 2 3 4 5 6 7 8 9 10 11 12 13 14 15 16 17 18 19 20 21 22 23 24 25 26 27 28 29 30 31 32 33 34 35 36 37 38 39 40 41 42 43 44 45 46 47 48 49 50
000 ASUS42 KMHX 221110 RWRMHX WEATHER ROUNDUP FOR EASTERN NORTH CAROLINA NATIONAL WEATHER SERVICE NEWPORT/MOREHEAD CITY NC 600 AM EST MON DEC 22 2014 NOTE: "FAIR" INDICATES FEW OR NO CLOUDS BELOW 12,000 FEET WITH NO SIGNIFICANT WEATHER AND/OR OBSTRUCTIONS TO VISIBILITY NCZ015>017-031-032-045>047-102-103-221200- NORTH COAST CITY SKY/WX TMP DP RH WIND PRES REMARKS EDENTON RAIN 42 41 96 NE12G20 30.15R ELIZABETH CITY RAIN 47 41 80 NE16 30.16S KITTY HAWK LGT RAIN 49 47 95 NE10 30.11F MANTEO DRIZZLE 49 47 92 NE16G26 30.12S $$ NCZ045>047-081-094-103-104-221200- CENTRAL COAST CITY SKY/WX TMP DP RH WIND PRES REMARKS FRISCO LGT RAIN 56 56 100 E10G16 30.06S SWANQUARTER N/A 48 N/A N/A N14G22 30.03S $$ NCZ095-097-098-100-101-221200- SOUTHERN COAST CITY SKY/WX TMP DP RH WIND PRES REMARKS BEAUFORT CLOUDY 50 49 96 N10 30.06R FOG CEDAR ISLAND N/A 50 N/A N/A N12G26 30.09S JACKSONVILLE LGT RAIN 45 43 93 N9 30.06S FOG PINEY ISLAND CLOUDY N/A N/A N/A MISG 30.06R WILMINGTON CLOUDY 44 43 96 N9 30.04F FOG $$ NCZ011>013-027>030-043-044-078>080-089-090>093-098-221200- COASTAL PLAIN CITY SKY/WX TMP DP RH WIND PRES REMARKS AHOSKIE RAIN 37 36 94 N9 30.17S CLINTON RAIN 40 40 100 N7 30.13R ELIZABETHTOWN HVY RAIN 41 41 100 N7 30.09R GOLDSBORO LGT RAIN 39 39 100 NE10 30.09R GREENVILLE DRIZZLE 39 39 100 NE7 30.14R HAVELOCK CLOUDY 49 47 93 NE13 30.08R FOG KENANSVILLE CLOUDY 40 39 99 NE3 30.09F FOG KINSTON NOT AVBL NEW BERN CLOUDY 48 45 89 N8 30.10R RICHLANDS CLOUDY 43 39 87 NE10G16 30.08S ROCKY MOUNT RAIN 38 36 92 NE14 30.13F FOG WASHINGTON CLOUDY 42 40 95 N9 30.12R WHITEVILLE CLOUDY 42 41 95 N6 30.07R FOG $$ AMZ130-135-150-152-154-156-158-170-250-252-270-ANZ085-086-088-633-658-670-221200- MARINE OBSERVATIONS STATION/POSITION TIME TEMP WIND PRES WAVE SWELL AIR SEA DIR/SP/G HT/PER HT/PER (UTC) (F) (DEG/KT/KT) (MB) (FT/S) (FT/S) CHESAPEAKE LIGHT 1000 45 50/ 24/ 25 1022.7 64 E VA BEACH 1100 53 53 50/ 21/ 27 1020.6 4/ 4 2/ 9 DUCK 1100 49 46 40/ 23/ 27 1019.5 2 E DUCK 1100 46 N/A 6/ 6 10 NE DUCK 1100 52 N/A 6/ 6 OREGON INLET 1100 50 48 30/ 14/ 19 1019.2 13E OREGON INLT 1100 52 N/A 5/ 6 HATTERAS CG 1100 53 49 50/ 9/ 13 1018.2 DIAMOND BUOY 1100 65 1017.3 8/ 7 17 S OCRACOKE NOT AVBL CAPE LOOKOUT 1000 54 30/ 14/ 17 1016.5 BEAUFORT LAB 1100 50 50 20/ 10/ 15 1016.6 30 SE NEW RIVER 1100 58 60 30/ 17/ 21 1015.8 7/ 7 5 SE WRIGHTSVLE NOT AVBL 225 S CAPE HAT 1000 73 72 220/ 10/ 14 1017.3 5/ 7 5/ 7 41 SE CHARLESTON 1100 66 73 360/ 12/ 16 1015.4 6/ 9 5/ 9 $$

USA.gov is the U.S. government's official web portal to all federal, state and local government web resources and services.